Regional Weather Roundup
Issued by NWS Mt. Holly, NJ

Home | Current Version | Previous Version | Text Only | Print | Product List | Glossary On
Versions: 1 2 3 4 5 6 7 8 9 10 11 12 13 14 15 16 17 18 19 20 21 22 23 24 25 26 27 28 29 30 31 32 33 34 35 36 37 38 39 40 41 42 43 44 45 46 47 48 49 50
212
ASUS41 KPHI 201812
RWRPHI

REGIONAL WEATHER ROUNDUP
NATIONAL WEATHER SERVICE MOUNT HOLLY NJ
200 PM EDT TUE AUG 20 2019

NOTE:  "FAIR" INDICATES FEW OR NO CLOUDS BELOW 12,000 FEET WITH NO
SIGNIFICANT WEATHER AND/OR OBSTRUCTIONS TO VISIBILITY.

 * = STATION DOES NOT REPORT PRECIPITATION (E.G. RAIN, SNOW, ETC.)
        OR FOG.

NJZ015>026-201900-
SOUTHERN NEW JERSEY

CITY           SKY/WX    TMP DP  RH WIND       PRES   REMARKS
POMONA         PTSUNNY   86  70  58 E9        30.09F HX  90
6HR MIN TEMP:  80; 6HR MAX TEMP:  88;

WILDWOOD*      FAIR      86  74  67 E8        30.09F HX  94
MILLVILLE      PTSUNNY   89  69  51 SE9       30.08F HX  93
MOUNT HOLLY    FAIR      88  71  57 SE5       30.08S HX  94
TRENTON        FAIR      86  69  56 SE10      30.08S HX  90
6HR MIN TEMP:  76; 6HR MAX TEMP:  87;


$$
NJZ001>014-201900-
NORTHERN NEW JERSEY

CITY           SKY/WX    TMP DP  RH WIND       PRES   REMARKS
SUSSEX         FAIR      86  65  49 VRB6      30.09F
ANDOVER*         N/A     86  66  51 VRB6      30.10F
MORRISTOWN     MOSUNNY   88  70  55 W8        30.08F HX  92
NEWARK         PTSUNNY   87  66  49 S10       30.07F
TETERBORO      PTSUNNY   88  65  46 CALM      30.06F HX  90
CALDWELL       FAIR      90  64  42 W3        30.08F HX  91
SOMERVILLE     PTSUNNY   88  70  55 S5        30.06F HX  93
ALLAIRE*       FAIR      83  61  47 E8        30.11F
TOMS RIVER*    FAIR      86  67  52 E9        30.10F

$$
PAZ043-044-047-054-055-060>062-066>071-201900-
EASTERN PENNSYLVANIA

CITY           SKY/WX    TMP DP  RH WIND       PRES   REMARKS
PHILADELPHIA   PTSUNNY   91  69  48 VRB5      30.07F HX  96
6HR MIN TEMP:  79; 6HR MAX TEMP:  92;

NORTH PHILA    PTSUNNY   88  70  55 SE10      30.09S HX  93
BLUE BELL*     FAIR      86  71  60 CALM      30.09S HX  91
DOYLESTOWN     FAIR      89  70  53 MISG      30.09S HX  94
QUAKERTOWN*    MOSUNNY   88  70  55 VRB3      30.10  HX  92
PERKASIE*      MOCLDY    84  68  58 CALM      30.11S
POTTSTOWN      PTSUNNY   85  68  56 NW3       30.11S
LANCASTER      FAIR      90  70  51 VRB6      30.09S HX  95
COATESVILLE    FAIR      88  70  55 VRB6      30.12S HX  92
WEST CHESTER   FAIR      88  66  48 CALM      30.10S HX  90
READING        PTSUNNY   90  70  51 VRB3      30.08S HX  95
6HR MIN TEMP:  74; 6HR MAX TEMP:  91;

ALLENTOWN      FAIR      89  66  46 N6        30.09S HX  91
6HR MIN TEMP:  74; 6HR MAX TEMP:  89;

QN CITY/ALNTWN PTSUNNY   88  68  51 SW9       30.11S HX  91
MOUNT POCONO   CLOUDY    78  64  61 CALM      30.17S
6HR MIN TEMP:  70; 6HR MAX TEMP:  80;

HAZLETON       FAIR      82  63  51 W5        30.18S
LEHIGHTON      FAIR      86  64  48 CALM      30.10F
WILKES BARRE   FAIR      85  63  47 N3        30.12S

$$
DEZALL-MDZ008-012-015-019-020-201900-
DELAWARE AND EASTERN MARYLAND

CITY           SKY/WX    TMP DP  RH WIND       PRES   REMARKS
WILMINGTON     PTSUNNY   89  71  55 SE7       30.08S HX  95
6HR MIN TEMP:  79; 6HR MAX TEMP:  91;

CHESWOLD       CLEAR     90  68  48 SE7       30.07F HX  93
GEORGETOWN     FAIR      87  74  64 SE9       30.07F HX  95
6HR MIN TEMP:  76; 6HR MAX TEMP:  88;

EASTON         MOSUNNY   97  72  44 CALM      30.09F HX 105
STEVENSVILLE   FAIR      93  68  43 SE5       30.06S HX  97
PATUXENT       FAIR      90  73  57 SE12      30.05F HX  98
OCEAN CITY     FAIR      85  77  77 E7        30.07F HX  95
WALLOPS ISLAND TSTM      86  78  77 SE6       30.07F HX  98
CAMBRIDGE      PTSUNNY   91  75  59 NE5       30.04F HX 102
SALISBURY      FAIR      89  74  60 SE9       30.04F HX  98

$$
PAZ001-021-NYZ056-072-MDZ011-DCZ001-201900-
OTHER NEARBY LOCATIONS

CITY           SKY/WX    TMP DP  RH WIND       PRES   REMARKS
HARRISBURG     PTSUNNY   89  65  44 CALM      30.07F HX  91
STATE COLLEGE  MOSUNNY   84  66  54 S5        30.12F
WILLIAMSPORT   FAIR      85  64  49 CALM      30.08F
BINGHAMTON     FAIR      78  60  53 W9G20     30.15S
NEW YORK CITY  FAIR      85  66  53 VRB3      30.10F
BALTIMORE      PTSUNNY   94  68  42 E9        30.06F HX  98
WASHINGTON DC  FAIR      95  71  45 SE8       30.05F HX 102

$$




USA.gov is the U.S. government's official web portal to all federal, state and local government web resources and services.